| time (UTC) | temp F | wind direction | speed knots | gust knots | rain 1hr in | rain 24hr in | rain mn in | humidity % | barometer mb |
| 20260831115513 | 69 | 360 | 0.9 | 2.6 | 0.00 | 0.00 | 0.00 | 95 | 1019.9 |
| 20260831115010 | 69 | 360 | 0.9 | 2.6 | 0.00 | 0.00 | 0.00 | 95 | 1019.9 |
| 20260831114543 | 69 | 360 | 0.0 | 2.6 | 0.00 | 0.00 | 0.00 | 95 | 1019.9 |
| 20260831114010 | 69 | 5 | 0.9 | 2.6 | 0.00 | 0.00 | 0.00 | 95 | 1019.9 |
| 20260831113514 | 69 | 29 | 0.0 | 3.5 | 0.00 | 0.00 | 0.00 | 94 | 1019.9 |
| 20260831113033 | 69 | 11 | 0.9 | 3.5 | 0.00 | 0.00 | 0.00 | 94 | 1019.9 |
| 20260831112508 | 69 | 22 | 0.9 | 2.6 | 0.00 | 0.00 | 0.00 | 94 | 1019.9 |
| 20260831112012 | 69 | 23 | 0.9 | 2.6 | 0.00 | 0.00 | 0.00 | 94 | 1019.7 |
| 20260831111513 | 69 | 33 | 0.9 | 2.6 | 0.00 | 0.00 | 0.00 | 94 | 1019.7 |
| 20260831111009 | 69 | 13 | 0.0 | 3.5 | 0.00 | 0.00 | 0.00 | 94 | 1019.6 |
| 20260831110510 | 69 | 22 | 0.9 | 4.3 | 0.00 | 0.00 | 0.00 | 94 | 1019.5 |
| 20260831110019 | 69 | 360 | 0.9 | 4.3 | 0.00 | 0.00 | 0.00 | 94 | 1019.5 |
| 20260831105511 | 69 | 13 | 0.9 | 3.5 | 0.00 | 0.00 | 0.00 | 94 | 1019.4 |
| 20260831105008 | 69 | 360 | 0.9 | 2.6 | 0.00 | 0.00 | 0.00 | 94 | 1019.3 |
| 20260831104535 | 69 | 18 | 0.9 | 2.6 | 0.00 | 0.00 | 0.00 | 94 | 1019.4 |
| 20260831104015 | 69 | 9 | 0.9 | 2.6 | 0.00 | 0.00 | 0.00 | 94 | 1019.3 |
| 20260831103514 | 69 | 360 | 0.0 | 2.6 | 0.00 | 0.00 | 0.00 | 93 | 1019.3 |
| 20260831103023 | 69 | 11 | 0.9 | 2.6 | 0.00 | 0.00 | 0.00 | 93 | 1019.3 |
| 20260831102514 | 69 | 22 | 0.0 | 2.6 | 0.00 | 0.00 | 0.00 | 93 | 1019.3 |
| 20260831102018 | 69 | 360 | 0.9 | 2.6 | 0.00 | 0.00 | 0.00 | 93 | 1019.4 |
| 20260831101521 | 69 | 322 | 0.9 | 2.6 | 0.00 | 0.00 | 0.00 | 93 | 1019.3 |
| 20260831101013 | 69 | 328 | 0.9 | 2.6 | 0.00 | 0.00 | 0.00 | 93 | 1019.2 |
| 20260831100516 | 69 | 317 | 0.9 | 2.6 | 0.00 | 0.00 | 0.00 | 93 | 1019.1 |
| 20260831100032 | 69 | 318 | 0.9 | 3.5 | 0.00 | 0.00 | 0.00 | 93 | 1019.1 |
| 20260831095506 | 69 | 341 | 0.9 | 3.5 | 0.00 | 0.00 | 0.00 | 93 | 1019.1 |
| 20260831095013 | 69 | 331 | 0.9 | 4.3 | 0.00 | 0.00 | 0.00 | 93 | 1019.0 |
| 20260831094538 | 69 | 320 | 0.9 | 4.3 | 0.00 | 0.00 | 0.00 | 93 | 1019.0 |
| 20260831094010 | 69 | 298 | 0.9 | 3.5 | 0.00 | 0.00 | 0.00 | 93 | 1018.9 |
| 20260831093511 | 69 | 321 | 0.0 | 3.5 | 0.00 | 0.00 | 0.00 | 93 | 1019.0 |
| 20260831093031 | 69 | 5 | 0.9 | 3.5 | 0.00 | 0.00 | 0.00 | 93 | 1019.1 |
| 20260831092516 | 70 | 306 | 0.9 | 4.3 | 0.00 | 0.00 | 0.00 | 93 | 1019.1 |
| 20260831092005 | 69 | 324 | 1.7 | 4.3 | 0.00 | 0.00 | 0.00 | 93 | 1019.1 |
| 20260831091538 | 70 | 310 | 0.9 | 3.5 | 0.00 | 0.00 | 0.00 | 92 | 1019.2 |
| 20260831091014 | 69 | 306 | 0.9 | 3.5 | 0.00 | 0.00 | 0.00 | 92 | 1019.2 |
| 20260831090518 | 70 | 299 | 0.9 | 6.1 | 0.00 | 0.00 | 0.00 | 92 | 1019.2 |
| 20260831090023 | 69 | 325 | 1.7 | 6.1 | 0.00 | 0.00 | 0.00 | 92 | 1019.1 |
| 20260831085518 | 69 | 323 | 2.6 | 4.3 | 0.00 | 0.00 | 0.00 | 92 | 1019.2 |
| 20260831085016 | 69 | 323 | 0.9 | 3.5 | 0.00 | 0.00 | 0.00 | 92 | 1019.2 |
| 20260831084536 | 70 | 292 | 1.7 | 4.3 | 0.00 | 0.00 | 0.00 | 92 | 1019.2 |
| 20260831084003 | 70 | 308 | 1.7 | 4.3 | 0.00 | 0.00 | 0.00 | 92 | 1019.2 |
| 20260831083504 | 70 | 310 | 2.6 | 4.3 | 0.00 | 0.00 | 0.00 | 92 | 1019.3 |
| 20260831083012 | 70 | 325 | 1.7 | 4.3 | 0.00 | 0.00 | 0.00 | 92 | 1019.3 |
| 20260831082510 | 70 | 309 | 0.9 | 4.3 | 0.00 | 0.00 | 0.00 | 92 | 1019.2 |
| 20260831082006 | 70 | 301 | 1.7 | 4.3 | 0.00 | 0.00 | 0.00 | 92 | 1019.2 |
| 20260831081507 | 70 | 322 | 1.7 | 4.3 | 0.00 | 0.00 | 0.00 | 92 | 1019.2 |
| 20260831081005 | 70 | 314 | 0.9 | 4.3 | 0.00 | 0.00 | 0.00 | 92 | 1019.2 |
| 20260831080504 | 70 | 319 | 1.7 | 4.3 | 0.00 | 0.00 | 0.00 | 92 | 1019.2 |
| 20260831080009 | 70 | 332 | 1.7 | 4.3 | 0.00 | 0.00 | 0.00 | 92 | 1019.2 |
| 20260831075505 | 70 | 314 | 1.7 | 6.1 | 0.00 | 0.00 | 0.00 | 91 | 1019.2 |
| 20260831075006 | 70 | 311 | 3.5 | 6.1 | 0.00 | 0.00 | 0.00 | 91 | 1019.2 |
| 20260831074504 | 70 | 308 | 1.7 | 4.3 | 0.00 | 0.00 | 0.00 | 91 | 1019.2 |
| 20260831074005 | 70 | 305 | 1.7 | 4.3 | 0.00 | 0.00 | 0.00 | 91 | 1019.1 |
| 20260831073506 | 70 | 311 | 1.7 | 4.3 | 0.00 | 0.00 | 0.00 | 91 | 1019.2 |
| 20260831073024 | 70 | 302 | 1.7 | 7.0 | 0.00 | 0.00 | 0.00 | 91 | 1019.2 |
| 20260831072505 | 70 | 289 | 1.7 | 7.0 | 0.00 | 0.00 | 0.00 | 91 | 1019.2 |
| 20260831072004 | 70 | 305 | 1.7 | 4.3 | 0.00 | 0.00 | 0.00 | 91 | 1019.2 |
| 20260831071518 | 70 | 311 | 1.7 | 5.2 | 0.00 | 0.00 | 0.00 | 91 | 1019.2 |
| 20260831071014 | 70 | 306 | 2.6 | 7.0 | 0.00 | 0.00 | 0.00 | 90 | 1019.2 |
| 20260831070503 | 70 | 299 | 2.6 | 7.0 | 0.00 | 0.00 | 0.00 | 90 | 1019.3 |
| 20260831070008 | 70 | 311 | 1.7 | 3.5 | 0.00 | 0.00 | 0.00 | 90 | 1019.3 |
| 20260831065504 | 70 | 316 | 1.7 | 3.5 | 0.00 | 0.00 | 0.00 | 90 | 1019.4 |
| 20260831065004 | 70 | 317 | 0.9 | 2.6 | 0.00 | 0.00 | 0.00 | 90 | 1019.5 |
| 20260831064512 | 70 | 312 | 1.7 | 3.5 | 0.00 | 0.00 | 0.00 | 90 | 1019.5 |
| 20260831064006 | 70 | 311 | 1.7 | 4.3 | 0.00 | 0.00 | 0.00 | 90 | 1019.5 |
| 20260831063507 | 70 | 317 | 0.9 | 4.3 | 0.00 | 0.00 | 0.00 | 90 | 1019.6 |
| 20260831063008 | 70 | 308 | 1.7 | 4.3 | 0.00 | 0.00 | 0.00 | 90 | 1019.6 |
| 20260831062506 | 70 | 323 | 2.6 | 4.3 | 0.00 | 0.00 | 0.00 | 90 | 1019.8 |
| 20260831062008 | 70 | 317 | 1.7 | 6.1 | 0.00 | 0.00 | 0.00 | 90 | 1019.8 |
| 20260831061524 | 70 | 311 | 2.6 | 6.1 | 0.00 | 0.00 | 0.00 | 90 | 1019.8 |
| 20260831061005 | 70 | 304 | 1.7 | 4.3 | 0.00 | 0.00 | 0.00 | 90 | 1019.8 |
| 20260831060507 | 70 | 333 | 1.7 | 3.5 | 0.00 | 0.00 | 0.00 | 90 | 1019.9 |
| 20260831060029 | 70 | 313 | 1.7 | 3.5 | 0.00 | 0.00 | 0.00 | 90 | 1020.0 |
| 20260831055503 | 70 | 291 | 1.7 | 3.5 | 0.00 | 0.00 | 0.00 | 90 | 1019.9 |
| 20260831055012 | 70 | 281 | 1.7 | 3.5 | 0.00 | 0.00 | 0.00 | 89 | 1019.8 |
| 20260831054510 | 71 | 294 | 0.9 | 2.6 | 0.00 | 0.00 | 0.00 | 89 | 1019.9 |
| 20260831054003 | 71 | 305 | 0.9 | 2.6 | 0.00 | 0.00 | 0.00 | 89 | 1019.9 |
| 20260831053503 | 71 | 305 | 0.9 | 2.6 | 0.00 | 0.00 | 0.00 | 89 | 1020.0 |
| 20260831053015 | 71 | 304 | 1.7 | 2.6 | 0.00 | 0.00 | 0.00 | 89 | 1020.0 |
| 20260831052508 | 71 | 296 | 0.9 | 3.5 | 0.00 | 0.00 | 0.00 | 89 | 1020.0 |
| 20260831052007 | 71 | 327 | 0.0 | 4.3 | 0.00 | 0.00 | 0.00 | 90 | 1020.1 |
| 20260831051528 | 70 | 303 | 1.7 | 4.3 | 0.00 | 0.00 | 0.00 | 90 | 1019.9 |
| 20260831051011 | 71 | 331 | 0.0 | 3.5 | 0.00 | 0.00 | 0.00 | 91 | 1019.9 |
| 20260831050510 | 71 | 360 | 0.9 | 3.5 | 0.00 | 0.00 | 0.00 | 91 | 1019.9 |
| 20260831050010 | 71 | 360 | 0.9 | 3.5 | 0.00 | 0.00 | 0.00 | 91 | 1020.0 |
| 20260831045507 | 71 | 317 | 0.9 | 3.5 | 0.00 | 0.00 | 0.00 | 91 | 1019.8 |
| 20260831045016 | 71 | 324 | 0.9 | 3.5 | 0.00 | 0.00 | 0.00 | 91 | 1019.7 |
| 20260831044532 | 71 | 322 | 0.9 | 4.3 | 0.00 | 0.00 | 0.00 | 91 | 1019.7 |
| 20260831044006 | 71 | 302 | 1.7 | 4.3 | 0.00 | 0.00 | 0.00 | 91 | 1019.8 |
| 20260831043510 | 71 | 313 | 1.7 | 4.3 | 0.00 | 0.00 | 0.00 | 91 | 1019.8 |
| 20260831043031 | 71 | 318 | 1.7 | 3.5 | 0.00 | 0.00 | 0.00 | 91 | 1019.9 |
| 20260831042507 | 71 | 317 | 1.7 | 3.5 | 0.00 | 0.00 | 0.00 | 91 | 1020.0 |
| 20260831042007 | 71 | 288 | 0.9 | 3.5 | 0.00 | 0.00 | 0.00 | 91 | 1020.1 |
| 20260831041518 | 71 | 302 | 1.7 | 3.5 | 0.00 | 0.00 | 0.00 | 91 | 1020.2 |
| 20260831041008 | 71 | 289 | 0.9 | 2.6 | 0.00 | 0.00 | 0.00 | 91 | 1020.2 |
| 20260831040504 | 71 | 255 | 0.9 | 2.6 | 0.00 | 0.00 | 0.00 | 91 | 1020.1 |
| 20260831040034 | 71 | 255 | 0.9 | 1.7 | 0.00 | 0.00 | 0.00 | 91 | 1020.1 |
| 20260831035515 | 71 | 255 | 0.9 | 1.7 | 0.00 | 0.00 | 0.00 | 91 | 1020.1 |
| 20260831035013 | 71 | 255 | 0.0 | 1.7 | 0.00 | 0.00 | 0.00 | 90 | 1020.2 |
| 20260831034517 | 71 | 255 | 0.0 | 1.7 | 0.00 | 0.00 | 0.00 | 90 | 1020.3 |
| 20260831034011 | 71 | 255 | 0.0 | 1.7 | 0.00 | 0.00 | 0.00 | 90 | 1020.3 |
| 20260831033515 | 71 | 255 | 0.9 | 2.6 | 0.00 | 0.00 | 0.00 | 90 | 1020.3 |
| 20260831033035 | 71 | 255 | 0.9 | 2.6 | 0.00 | 0.00 | 0.00 | 90 | 1020.4 |
| 20260831032513 | 72 | 281 | 0.9 | 2.6 | 0.00 | 0.00 | 0.00 | 90 | 1020.3 |
| 20260831032014 | 72 | 281 | 0.9 | 2.6 | 0.00 | 0.00 | 0.00 | 89 | 1020.4 |
| 20260831031531 | 72 | 289 | 0.0 | 2.6 | 0.00 | 0.00 | 0.00 | 89 | 1020.5 |
| 20260831031007 | 72 | 286 | 1.7 | 3.5 | 0.00 | 0.00 | 0.00 | 89 | 1020.5 |
| 20260831030506 | 72 | 292 | 1.7 | 5.2 | 0.00 | 0.00 | 0.00 | 89 | 1020.5 |
| 20260831030019 | 72 | 293 | 1.7 | 5.2 | 0.00 | 0.00 | 0.00 | 89 | 1020.4 |
| 20260831025510 | 72 | 289 | 1.7 | 5.2 | 0.00 | 0.00 | 0.00 | 89 | 1020.5 |
| 20260831025010 | 72 | 294 | 1.7 | 5.2 | 0.00 | 0.00 | 0.00 | 89 | 1020.5 |
| 20260831024525 | 72 | 298 | 1.7 | 5.2 | 0.00 | 0.00 | 0.00 | 88 | 1020.6 |
| 20260831024010 | 72 | 276 | 0.9 | 5.2 | 0.00 | 0.00 | 0.00 | 88 | 1020.7 |
| 20260831023516 | 72 | 276 | 1.7 | 3.5 | 0.00 | 0.00 | 0.00 | 88 | 1020.7 |
| 20260831023025 | 72 | 261 | 1.7 | 5.2 | 0.00 | 0.00 | 0.00 | 88 | 1020.7 |
| 20260831022512 | 72 | 261 | 1.7 | 5.2 | 0.00 | 0.00 | 0.00 | 88 | 1020.7 |
| 20260831022016 | 72 | 262 | 1.7 | 4.3 | 0.00 | 0.00 | 0.00 | 88 | 1020.8 |
| 20260831021516 | 72 | 236 | 1.7 | 4.3 | 0.00 | 0.00 | 0.00 | 88 | 1020.8 |
| 20260831021012 | 72 | 244 | 1.7 | 3.5 | 0.00 | 0.00 | 0.00 | 87 | 1020.8 |
| 20260831020516 | 72 | 242 | 1.7 | 3.5 | 0.00 | 0.00 | 0.00 | 87 | 1020.9 |
| 20260831020034 | 72 | 243 | 1.7 | 2.6 | 0.00 | 0.00 | 0.00 | 87 | 1020.9 |
| 20260831015514 | 73 | 248 | 1.7 | 3.5 | 0.00 | 0.00 | 0.00 | 87 | 1020.9 |
| 20260831015009 | 73 | 248 | 1.7 | 3.5 | 0.00 | 0.00 | 0.00 | 86 | 1021.0 |
| 20260831014534 | 73 | 248 | 0.9 | 2.6 | 0.00 | 0.00 | 0.00 | 86 | 1021.0 |
| 20260831014011 | 73 | 241 | 0.9 | 2.6 | 0.00 | 0.00 | 0.00 | 86 | 1020.9 |
| 20260831013514 | 73 | 241 | 0.9 | 2.6 | 0.00 | 0.00 | 0.00 | 86 | 1020.9 |
| 20260831013028 | 73 | 248 | 0.9 | 1.7 | 0.00 | 0.00 | 0.00 | 86 | 1020.9 |
| 20260831012512 | 73 | 242 | 0.0 | 1.7 | 0.00 | 0.00 | 0.00 | 87 | 1021.0 |
| 20260831012008 | 73 | 242 | 0.0 | 1.7 | 0.00 | 0.00 | 0.00 | 87 | 1021.0 |
| 20260831011536 | 73 | 242 | 0.9 | 1.7 | 0.00 | 0.00 | 0.00 | 86 | 1021.0 |
| 20260831011016 | 73 | 242 | 0.9 | 1.7 | 0.00 | 0.00 | 0.00 | 86 | 1020.9 |
| 20260831010518 | 73 | 242 | 0.9 | 3.5 | 0.00 | 0.00 | 0.00 | 86 | 1020.9 |
| 20260831010029 | 73 | 242 | 0.9 | 3.5 | 0.00 | 0.00 | 0.00 | 86 | 1020.9 |
| 20260831005517 | 73 | 231 | 1.7 | 3.5 | 0.00 | 0.00 | 0.00 | 85 | 1020.7 |
| 20260831005018 | 73 | 199 | 0.9 | 2.6 | 0.00 | 0.00 | 0.00 | 85 | 1020.7 |
| 20260831004536 | 73 | 196 | 0.0 | 2.6 | 0.00 | 0.00 | 0.00 | 85 | 1020.7 |
| 20260831004016 | 73 | 196 | 0.0 | 1.7 | 0.00 | 0.00 | 0.00 | 85 | 1020.7 |
| 20260831003512 | 73 | 190 | 0.0 | 1.7 | 0.00 | 0.00 | 0.00 | 84 | 1020.6 |
| 20260831003030 | 74 | 186 | 0.0 | 2.6 | 0.00 | 0.00 | 0.00 | 84 | 1020.5 |
| 20260831002511 | 74 | 198 | 0.0 | 2.6 | 0.00 | 0.00 | 0.00 | 84 | 1020.6 |
| 20260831002014 | 74 | 195 | 0.0 | 3.5 | 0.00 | 0.00 | 0.00 | 84 | 1020.5 |
| 20260831001530 | 74 | 167 | 0.9 | 3.5 | 0.00 | 0.00 | 0.00 | 83 | 1020.4 |
| 20260831001016 | 74 | 117 | 0.0 | 0.9 | 0.00 | 0.00 | 0.00 | 83 | 1020.4 |
| 20260831000514 | 74 | 117 | 0.0 | 0.0 | 0.00 | 0.00 | 0.00 | 83 | 1020.1 |
| 20260831000033 | 74 | 117 | 0.0 | 0.0 | 0.00 | 0.00 | 0.00 | 83 | 1020.0 |
| 20260830235518 | 74 | 117 | 0.0 | 0.0 | 0.00 | 0.00 | 0.00 | 83 | 1019.9 |
| 20260830235018 | 74 | 117 | 0.0 | 0.0 | 0.00 | 0.00 | 0.00 | 83 | 1019.7 |
| 20260830234540 | 75 | 117 | 0.0 | 0.9 | 0.00 | 0.00 | 0.00 | 82 | 1019.6 |
| 20260830234005 | 75 | 117 | 0.0 | 0.9 | 0.00 | 0.00 | 0.00 | 82 | 1019.5 |
| 20260830233506 | 75 | 117 | 0.0 | 1.7 | 0.00 | 0.00 | 0.00 | 82 | 1019.5 |
| 20260830233003 | 75 | 117 | 0.0 | 1.7 | 0.00 | 0.00 | 0.00 | 82 | 1019.4 |
| 20260830232504 | 75 | 117 | 0.0 | 0.0 | 0.00 | 0.00 | 0.00 | 81 | 1019.3 |
| 20260830232003 | 75 | 117 | 0.0 | 0.0 | 0.00 | 0.00 | 0.00 | 81 | 1019.3 |
| 20260830231503 | 75 | 117 | 0.0 | 0.0 | 0.00 | 0.00 | 0.00 | 80 | 1019.2 |
| 20260830231003 | 76 | 117 | 0.0 | 0.0 | 0.00 | 0.00 | 0.00 | 80 | 1019.2 |
| 20260830230505 | 76 | 117 | 0.0 | 1.7 | 0.00 | 0.00 | 0.00 | 80 | 1019.1 |
| 20260830230008 | 76 | 117 | 0.0 | 1.7 | 0.00 | 0.00 | 0.00 | 80 | 1019.1 |
| 20260830225504 | 76 | 117 | 0.9 | 3.5 | 0.00 | 0.00 | 0.00 | 79 | 1019.1 |
| 20260830225003 | 76 | 122 | 0.9 | 5.2 | 0.00 | 0.00 | 0.00 | 80 | 1019.2 |
| 20260830224511 | 76 | 98 | 1.7 | 8.7 | 0.00 | 0.00 | 0.00 | 79 | 1019.0 |
| 20260830224004 | 76 | 307 | 4.3 | 8.7 | 0.00 | 0.00 | 0.00 | 78 | 1018.4 |
| 20260830223503 | 76 | 312 | 3.5 | 6.1 | 0.00 | 0.00 | 0.00 | 78 | 1018.4 |
| 20260830223010 | 76 | 310 | 1.7 | 3.5 | 0.00 | 0.00 | 0.00 | 77 | 1018.8 |
| 20260830222510 | 77 | 320 | 0.9 | 2.6 | 0.00 | 0.00 | 0.00 | 78 | 1018.9 |
| 20260830222002 | 77 | 302 | 0.9 | 2.6 | 0.00 | 0.00 | 0.00 | 78 | 1019.0 |
| 20260830221508 | 77 | 309 | 0.9 | 2.6 | 0.00 | 0.00 | 0.00 | 77 | 1019.1 |
| 20260830221003 | 77 | 302 | 1.7 | 2.6 | 0.00 | 0.00 | 0.00 | 77 | 1019.1 |
| 20260830220503 | 77 | 297 | 0.9 | 2.6 | 0.00 | 0.00 | 0.00 | 77 | 1019.2 |
| 20260830220004 | 77 | 234 | 0.0 | 0.9 | 0.00 | 0.00 | 0.00 | 78 | 1019.2 |
| 20260830215504 | 77 | 234 | 0.0 | 1.7 | 0.00 | 0.00 | 0.00 | 75 | 1019.2 |
| 20260830215002 | 77 | 234 | 0.0 | 1.7 | 0.00 | 0.00 | 0.00 | 78 | 1019.4 |
| 20260830214511 | 77 | 234 | 0.0 | 0.9 | 0.00 | 0.00 | 0.00 | 80 | 1019.4 |
| 20260830214006 | 77 | 242 | 0.0 | 1.7 | 0.00 | 0.00 | 0.00 | 81 | 1019.3 |
| 20260830213507 | 76 | 242 | 0.0 | 1.7 | 0.00 | 0.00 | 0.00 | 82 | 1019.4 |
| 20260830213015 | 76 | 242 | 0.0 | 1.7 | 0.00 | 0.00 | 0.00 | 81 | 1019.3 |
| 20260830212503 | 76 | 242 | 0.0 | 2.6 | 0.00 | 0.00 | 0.00 | 79 | 1019.2 |
| 20260830212003 | 77 | 242 | 0.9 | 2.6 | 0.00 | 0.00 | 0.00 | 77 | 1019.1 |
| 20260830211518 | 77 | 298 | 0.9 | 1.7 | 0.00 | 0.00 | 0.00 | 77 | 1019.1 |
| 20260830211012 | 77 | 298 | 0.9 | 1.7 | 0.00 | 0.00 | 0.00 | 78 | 1019.1 |
| 20260830210502 | 77 | 61 | 0.0 | 1.7 | 0.00 | 0.00 | 0.00 | 77 | 1019.2 |
| 20260830210013 | 78 | 68 | 0.0 | 5.2 | 0.00 | 0.00 | 0.00 | 78 | 1019.3 |
| 20260830205504 | 78 | 55 | 0.9 | 5.2 | 0.00 | 0.00 | 0.00 | 75 | 1019.4 |
| 20260830205003 | 78 | 57 | 1.7 | 6.1 | 0.00 | 0.00 | 0.00 | 76 | 1019.4 |
| 20260830204507 | 78 | 38 | 2.6 | 6.1 | 0.00 | 0.00 | 0.00 | 74 | 1019.4 |
| 20260830204003 | 79 | 17 | 1.7 | 4.3 | 0.00 | 0.00 | 0.00 | 74 | 1019.5 |
| 20260830203503 | 79 | 55 | 1.7 | 4.3 | 0.00 | 0.00 | 0.00 | 74 | 1019.6 |
| 20260830203006 | 79 | 52 | 0.9 | 4.3 | 0.00 | 0.00 | 0.00 | 74 | 1019.6 |
| 20260830202507 | 79 | 33 | 0.0 | 2.6 | 0.00 | 0.00 | 0.00 | 73 | 1019.7 |
| 20260830202007 | 79 | 33 | 0.9 | 3.5 | 0.00 | 0.00 | 0.00 | 72 | 1019.9 |
| 20260830201523 | 79 | 79 | 1.7 | 3.5 | 0.00 | 0.00 | 0.00 | 72 | 1019.9 |
| 20260830201004 | 79 | 52 | 0.9 | 3.5 | 0.00 | 0.00 | 0.00 | 71 | 1019.9 |
| 20260830200508 | 79 | 49 | 1.7 | 4.3 | 0.00 | 0.00 | 0.00 | 72 | 1020.0 |
| 20260830200026 | 79 | 119 | 1.7 | 4.3 | 0.00 | 0.00 | 0.00 | 71 | 1020.1 |
| 20260830195513 | 79 | 80 | 1.7 | 3.5 | 0.00 | 0.00 | 0.00 | 72 | 1020.2 |
| 20260830195004 | 79 | 63 | 0.0 | 3.5 | 0.00 | 0.00 | 0.00 | 74 | 1020.3 |
| 20260830194517 | 79 | 47 | 1.7 | 4.3 | 0.00 | 0.00 | 0.00 | 72 | 1020.3 |
| 20260830194015 | 79 | 55 | 2.6 | 4.3 | 0.00 | 0.00 | 0.00 | 72 | 1020.4 |
| 20260830193503 | 79 | 107 | 0.0 | 2.6 | 0.00 | 0.00 | 0.00 | 74 | 1020.6 |
| 20260830193013 | 79 | 128 | 0.9 | 2.6 | 0.00 | 0.00 | 0.00 | 73 | 1020.6 |
| 20260830192505 | 79 | 119 | 0.9 | 2.6 | 0.00 | 0.00 | 0.00 | 74 | 1020.7 |
| 20260830192004 | 78 | 101 | 0.0 | 2.6 | 0.00 | 0.00 | 0.00 | 73 | 1020.8 |
| 20260830191518 | 79 | 101 | 0.9 | 2.6 | 0.00 | 0.00 | 0.00 | 72 | 1020.9 |
| 20260830191008 | 79 | 128 | 0.9 | 2.6 | 0.00 | 0.00 | 0.00 | 71 | 1021.0 |
| 20260830190509 | 79 | 109 | 0.0 | 2.6 | 0.00 | 0.00 | 0.00 | 72 | 1021.1 |
| 20260830190018 | 79 | 133 | 0.0 | 2.6 | 0.00 | 0.00 | 0.00 | 71 | 1021.1 |
| 20260830185508 | 79 | 130 | 0.9 | 2.6 | 0.00 | 0.00 | 0.00 | 72 | 1021.2 |
| 20260830185011 | 79 | 125 | 0.0 | 2.6 | 0.00 | 0.00 | 0.00 | 70 | 1021.2 |
| 20260830184528 | 80 | 125 | 0.9 | 2.6 | 0.00 | 0.00 | 0.00 | 71 | 1021.3 |
| 20260830184005 | 80 | 97 | 0.0 | 3.5 | 0.00 | 0.00 | 0.00 | 71 | 1021.3 |
| 20260830183509 | 80 | 121 | 0.0 | 3.5 | 0.00 | 0.00 | 0.00 | 69 | 1021.4 |
| 20260830183030 | 80 | 119 | 0.9 | 3.5 | 0.00 | 0.00 | 0.00 | 70 | 1021.4 |
| 20260830182517 | 81 | 125 | 0.0 | 2.6 | 0.00 | 0.00 | 0.00 | 68 | 1021.4 |
| 20260830182005 | 81 | 110 | 0.0 | 3.5 | 0.00 | 0.00 | 0.00 | 70 | 1021.3 |
| 20260830181512 | 81 | 155 | 0.9 | 4.3 | 0.00 | 0.00 | 0.00 | 69 | 1021.3 |
| 20260830181004 | 81 | 64 | 0.0 | 4.3 | 0.00 | 0.00 | 0.00 | 69 | 1021.3 |
| 20260830180503 | 81 | 65 | 0.9 | 3.5 | 0.00 | 0.00 | 0.00 | 69 | 1021.3 |
| 20260830180039 | 81 | 130 | 0.9 | 3.5 | 0.00 | 0.00 | 0.00 | 67 | 1021.3 |
| 20260830175510 | 81 | 88 | 0.0 | 6.1 | 0.00 | 0.00 | 0.00 | 71 | 1021.4 |
| 20260830175009 | 81 | 124 | 1.7 | 7.0 | 0.00 | 0.00 | 0.00 | 67 | 1021.4 |
| 20260830174515 | 81 | 109 | 1.7 | 7.8 | 0.00 | 0.00 | 0.00 | 71 | 1021.5 |
| 20260830174008 | 80 | 67 | 3.5 | 7.8 | 0.00 | 0.00 | 0.00 | 71 | 1021.5 |
| 20260830173511 | 80 | 130 | 0.9 | 6.1 | 0.00 | 0.00 | 0.00 | 74 | 1021.6 |
| 20260830173048 | 79 | 50 | 2.6 | 6.1 | 0.00 | 0.00 | 0.00 | 73 | 1021.6 |
| 20260830172506 | 79 | 67 | 2.6 | 6.1 | 0.00 | 0.00 | 0.00 | 72 | 1021.8 |
| 20260830172013 | 79 | 132 | 0.9 | 6.1 | 0.00 | 0.00 | 0.00 | 77 | 1021.9 |
| 20260830171534 | 79 | 81 | 0.0 | 7.0 | 0.00 | 0.00 | 0.00 | 76 | 1021.8 |
| 20260830171010 | 78 | 120 | 1.7 | 7.0 | 0.00 | 0.00 | 0.00 | 78 | 1021.9 |
| 20260830170511 | 78 | 117 | 1.7 | 4.3 | 0.00 | 0.00 | 0.00 | 77 | 1022.0 |
| 20260830170014 | 77 | 99 | 0.9 | 3.5 | 0.00 | 0.00 | 0.00 | 80 | 1022.2 |
| 20260830165507 | 77 | 142 | 0.9 | 3.5 | 0.00 | 0.00 | 0.00 | 83 | 1022.2 |
| 20260830165008 | 76 | 96 | 0.0 | 2.6 | 0.00 | 0.00 | 0.00 | 81 | 1022.2 |
| 20260830164520 | 76 | 190 | 0.0 | 2.6 | 0.00 | 0.00 | 0.00 | 81 | 1022.2 |
| 20260830164009 | 76 | 126 | 0.0 | 2.6 | 0.00 | 0.00 | 0.00 | 83 | 1022.3 |
| 20260830163512 | 76 | 132 | 0.0 | 2.6 | 0.00 | 0.00 | 0.00 | 82 | 1022.2 |
| 20260830163023 | 75 | 99 | 0.0 | 2.6 | 0.00 | 0.00 | 0.00 | 83 | 1022.2 |
| 20260830162514 | 75 | 99 | 0.9 | 2.6 | 0.00 | 0.00 | 0.00 | 84 | 1022.1 |
| 20260830162018 | 75 | 121 | 0.9 | 2.6 | 0.00 | 0.00 | 0.00 | 83 | 1022.1 |
| 20260830161515 | 75 | 113 | 0.0 | 2.6 | 0.00 | 0.00 | 0.00 | 82 | 1022.1 |
| 20260830161013 | 75 | 49 | 0.9 | 2.6 | 0.00 | 0.00 | 0.00 | 82 | 1022.0 |
| 20260830160513 | 74 | 49 | 0.0 | 0.0 | 0.00 | 0.00 | 0.00 | 83 | 1022.1 |
| 20260830160034 | 75 | 80 | 0.0 | 0.0 | 0.00 | 0.00 | 0.00 | 83 | 1022.0 |
| 20260830155507 | 74 | 80 | 0.0 | 2.6 | 0.00 | 0.00 | 0.00 | 83 | 1022.0 |
| 20260830155012 | 74 | 80 | 0.0 | 2.6 | 0.00 | 0.00 | 0.00 | 82 | 1022.0 |
| 20260830154516 | 74 | 80 | 0.9 | 2.6 | 0.00 | 0.00 | 0.00 | 81 | 1022.0 |
| 20260830154008 | 75 | 103 | 0.9 | 2.6 | 0.00 | 0.00 | 0.00 | 81 | 1022.1 |
| 20260830153511 | 75 | 32 | 0.9 | 1.7 | 0.00 | 0.00 | 0.00 | 79 | 1021.9 |
| 20260830153024 | 75 | 25 | 0.0 | 1.7 | 0.00 | 0.00 | 0.00 | 80 | 1021.8 |
| 20260830152515 | 75 | 43 | 0.9 | 2.6 | 0.00 | 0.00 | 0.00 | 79 | 1021.9 |
| 20260830152009 | 75 | 43 | 0.0 | 3.5 | 0.00 | 0.00 | 0.00 | 80 | 1022.0 |
| 20260830151526 | 75 | 43 | 1.7 | 3.5 | 0.00 | 0.00 | 0.00 | 78 | 1022.0 |
| 20260830151014 | 75 | 49 | 0.9 | 2.6 | 0.00 | 0.00 | 0.00 | 79 | 1022.1 |
| 20260830150515 | 75 | 77 | 0.9 | 2.6 | 0.00 | 0.00 | 0.00 | 78 | 1022.1 |
| 20260830150037 | 75 | 77 | 0.9 | 2.6 | 0.00 | 0.00 | 0.00 | 79 | 1022.0 |
| 20260830145514 | 75 | 77 | 0.9 | 2.6 | 0.00 | 0.00 | 0.00 | 77 | 1021.9 |
| 20260830145017 | 75 | 54 | 0.9 | 4.3 | 0.00 | 0.00 | 0.00 | 77 | 1021.9 |
| 20260830144535 | 75 | 59 | 0.9 | 4.3 | 0.00 | 0.00 | 0.00 | 75 | 1021.8 |
| 20260830144003 | 75 | 57 | 0.9 | 3.5 | 0.00 | 0.00 | 0.00 | 75 | 1021.7 |
| 20260830143503 | 76 | 35 | 0.9 | 3.5 | 0.00 | 0.00 | 0.00 | 77 | 1021.5 |
| 20260830143004 | 75 | 52 | 0.9 | 3.5 | 0.00 | 0.00 | 0.00 | 74 | 1021.5 |
| 20260830142502 | 75 | 50 | 0.9 | 3.5 | 0.00 | 0.00 | 0.00 | 75 | 1021.4 |
| 20260830142002 | 76 | 93 | 0.9 | 3.5 | 0.00 | 0.00 | 0.00 | 75 | 1021.3 |
| 20260830141509 | 76 | 36 | 0.9 | 3.5 | 0.00 | 0.00 | 0.00 | 74 | 1021.1 |
| 20260830141004 | 76 | 53 | 0.0 | 4.3 | 0.00 | 0.00 | 0.00 | 75 | 1021.0 |
| 20260830140503 | 76 | 49 | 0.9 | 4.3 | 0.00 | 0.00 | 0.00 | 75 | 1020.9 |
| 20260830140007 | 76 | 70 | 0.9 | 4.3 | 0.00 | 0.00 | 0.00 | 74 | 1020.9 |
| 20260830135504 | 76 | 13 | 1.7 | 4.3 | 0.00 | 0.00 | 0.00 | 75 | 1020.9 |
| 20260830135002 | 76 | 20 | 1.7 | 5.2 | 0.00 | 0.00 | 0.00 | 75 | 1020.8 |
| 20260830134507 | 75 | 11 | 0.0 | 5.2 | 0.00 | 0.00 | 0.00 | 77 | 1020.8 |
| 20260830134003 | 75 | 5 | 1.7 | 4.3 | 0.00 | 0.00 | 0.00 | 76 | 1020.9 |
| 20260830133501 | 74 | 53 | 0.9 | 3.5 | 0.00 | 0.00 | 0.00 | 77 | 1020.9 |
| 20260830133006 | 73 | 56 | 0.9 | 3.5 | 0.00 | 0.00 | 0.00 | 79 | 1020.9 |
| 20260830132502 | 72 | 30 | 1.7 | 3.5 | 0.00 | 0.00 | 0.00 | 79 | 1020.9 |
| 20260830132004 | 72 | 33 | 0.9 | 3.5 | 0.00 | 0.00 | 0.00 | 80 | 1021.0 |
| 20260830131506 | 71 | 25 | 0.9 | 3.5 | 0.00 | 0.00 | 0.00 | 81 | 1020.9 |
| 20260830131003 | 71 | 36 | 0.9 | 3.5 | 0.00 | 0.00 | 0.00 | 81 | 1021.0 |
| 20260830130503 | 70 | 44 | 0.9 | 3.5 | 0.00 | 0.00 | 0.00 | 81 | 1021.0 |
| 20260830130008 | 69 | 335 | 0.9 | 3.5 | 0.00 | 0.00 | 0.00 | 83 | 1020.9 |
| 20260830125502 | 69 | 42 | 1.7 | 4.3 | 0.00 | 0.00 | 0.00 | 83 | 1020.9 |
| 20260830125002 | 68 | 30 | 1.7 | 4.3 | 0.00 | 0.00 | 0.00 | 84 | 1021.0 |
| 20260830124507 | 67 | 40 | 0.9 | 2.6 | 0.00 | 0.00 | 0.00 | 85 | 1021.0 |
| 20260830124002 | 67 | 39 | 0.9 | 3.5 | 0.00 | 0.00 | 0.00 | 84 | 1021.1 |
| 20260830123505 | 67 | 9 | 0.9 | 3.5 | 0.00 | 0.00 | 0.00 | 85 | 1021.1 |
| 20260830123017 | 66 | 29 | 0.9 | 2.6 | 0.00 | 0.00 | 0.00 | 85 | 1021.0 |
| 20260830122503 | 66 | 43 | 0.9 | 2.6 | 0.00 | 0.00 | 0.00 | 86 | 1020.9 |
| 20260830122003 | 66 | 10 | 0.0 | 1.7 | 0.00 | 0.00 | 0.00 | 86 | 1021.0 |
| 20260830121507 | 66 | 14 | 0.0 | 1.7 | 0.00 | 0.00 | 0.00 | 85 | 1020.9 |
| 20260830121002 | 66 | 13 | 0.0 | 1.7 | 0.00 | 0.00 | 0.00 | 85 | 1021.0 |
| 20260830120506 | 66 | 13 | 0.0 | 2.6 | 0.00 | 0.00 | 0.00 | 85 | 1021.0 |
| 20260830120009 | 66 | 13 | 0.0 | 2.6 | 0.00 | 0.00 | 0.00 | 85 | 1020.9 |